Location: Lynch Observatory
(39.9540°N, 75.1861°W)
Time: 09:28:53
(UTC-04:00)

COSMOS 2251 DEB - Visible Passes

Search period start: 12 July 2024 00:00
Search period end: 22 July 2024 00:00
Orbit: 644 x 665 km, 74.0° (Epoch: 09 July)

Date Brightness Start Highest point End Pass type
(mag) Time Alt. Az. Time Alt. Az. Time Alt. Az.
12 Jul ? 03:41:20 29° S 03:43:34 62° ESE 03:48:08 10° NNE visible
13 Jul ? 02:31:48 14° ESE 02:32:57 15° E 02:35:33 10° ENE visible
13 Jul ? 04:09:41 25° SW 04:12:05 49° WNW 04:16:34 10° N visible
14 Jul ? 03:00:04 34° SE 03:01:05 38° ESE 03:05:22 10° NE visible
14 Jul ? 04:37:57 12° WSW 04:40:49 21° WNW 04:44:17 10° NNW visible
15 Jul ? 03:28:15 50° SSW 03:29:25 79° WNW 03:34:03 10° NNE visible
16 Jul ? 02:18:30 24° E 02:18:31 24° E 02:22:13 10° NE visible
16 Jul ? 03:56:22 25° W 03:57:57 31° WNW 04:02:02 10° N visible
17 Jul ? 02:46:32 64° ESE 02:46:39 64° ESE 02:51:13 10° NNE visible
17 Jul ? 04:24:24 10° W 04:26:41 14° WNW 04:28:59 10° NNW visible
18 Jul ? 01:36:39 15° E 01:36:39 15° E 01:38:29 10° ENE visible
18 Jul ? 03:14:31 46° W 03:14:58 48° WNW 03:19:26 10° N visible
19 Jul ? 02:04:33 36° ENE 02:04:33 36° ENE 02:08:03 10° NE visible
19 Jul ? 03:42:25 19° W 03:43:30 20° WNW 03:46:55 10° NNW visible
20 Jul ? 02:32:23 68° NNW 02:32:23 68° NNW 02:36:30 10° NNE visible
21 Jul ? 01:22:18 21° ENE 01:22:18 21° ENE 01:24:31 10° NE visible
21 Jul ? 03:00:09 30° WNW 03:00:12 30° WNW 03:04:18 10° N visible
